Regional Weather Roundup
Issued by NWS

Home | Current Version | Previous Version | Graphics & Text | Print | Product List | Glossary Off
Versions: 1 2 3 4 5 6 7 8 9 10 11 12 13 14 15 16 17 18 19 20 21 22 23 24 25 26 27 28 29 30 31 32 33 34 35 36 37 38 39 40 41 42 43 44 45 46 47 48 49 50

000
ASUS43 KMKX 311311
RWRWI

WISCONSIN REGIONAL WEATHER ROUNDUP
NATIONAL WEATHER SERVICE MILWAUKEE/SULLIVAN WI
800 AM CDT TUE MAY 31 2016

NOTE: "FAIR" INDICATES FEW OR NO CLOUDS BELOW 12,000 FEET WITH NO
SIGNIFICANT WEATHER AND/OR OBSTRUCTIONS TO VISIBILITY.

WIZ001-002-006>008-014>016-023>028-311400-
NORTHWEST WISCONSIN

CITY           SKY/WX    TMP DP  RH WIND       PRES   REMARKS
SUPERIOR ARPT  CLOUDY    43  41  90 NE17G26   29.99R
ASHLAND        CLOUDY    50  45  83 NE10      29.98S
HAYWARD        CLOUDY    59  51  75 VRB7      29.93S
SIREN          CLOUDY    56  52  84 NE3       29.92R
CUMBERLAND     CLOUDY    63  55  77 SE9       29.93R
RICE LAKE      CLOUDY    65  57  75 SE10      29.94R
CHETEK         CLOUDY    64  58  81 SE6       29.94R
LADYSMITH      CLOUDY    63  56  77 E10       29.97S
EAU CLAIRE     CLOUDY    66  57  72 S7        29.92R
MENOMONIE      CLOUDY    67  59  75 E5        29.92R
NEW RICHMOND   CLOUDY    67  55  65 S10       29.90S
OSCEOLA        CLOUDY    67  56  67 SE13      29.91S
$$

WIZ003>005-009-010-017-018-311400-
NORTH CENTRAL WISCONSIN

CITY           SKY/WX    TMP DP  RH WIND       PRES   REMARKS
MANITOWISH WTR NOT AVBL
ARBOR VITAE    CLOUDY    56  49  79 SE10      30.02S
WOODRUFF       CLOUDY    56  49  79 SE10      30.02S
RHINELANDER    MOSUNNY   55  48  77 E10       30.04S
EAGLE RIVER      N/A     51  42  72 SE7       30.03F
LAND O LAKES   MOSUNNY   52  44  74 E9        30.04F
PHILLIPS       CLOUDY    57  51  80 E7        29.98S
TOMAHAWK       CLOUDY    55  48  77 E7        30.02S
MEDFORD        CLOUDY    59  53  81 E5        29.97F
MERRILL        MOSUNNY   56  50  81 SE13      30.03S
$$

WIZ029-030-035-036-043>047-311400-
CENTRAL WISCONSIN

CITY           SKY/WX    TMP DP  RH WIND       PRES   REMARKS
WAUSAU         MOSUNNY   58  50  75 E15       30.00S
MOSINEE        SUNNY     57  52  82 E15       30.02S
MARSHFIELD     PTSUNNY   62  54  74 E13       29.97F
STEVENS POINT  SUNNY     58  51  79 E17G23    30.02F
WAUPACA        MOSUNNY   61  56  81 E10       30.03F
WAUTOMA        MOSUNNY  N/A N/A N/A E10       30.00F
WISC RAPIDS    CLOUDY    64  55  72 E15       29.99F
CAMP DOUGLAS   PTSUNNY   64  64 100 SE7       29.95F
$$

WIZ011>013-019>022-031-037>040-048>050-311400-
NORTHEAST WISCONSIN

CITY           SKY/WX    TMP DP  RH WIND       PRES   REMARKS
ANTIGO         CLOUDY    51  46  83 E10       30.06S
SHAWANO        MOSUNNY   56  48  75 E12       30.08R
OCONTO         CLOUDY    53  51  95 E8G16     30.07F
STURGEON BAY   NOT AVBL
GREEN BAY      CLOUDY    57  48  72 NE14      30.07F
MANITOWOC      CLOUDY    54  48  80 NE10G16   30.08S
APPLETON       PTSUNNY   57  46  67 E17G24    30.03S
CLINTONVILLE   CLOUDY    55  48  76 E7        30.06S
OSHKOSH        CLOUDY    62  55  77 NE10      30.03S
$$

WIZ032>034-041-042-053>061-311400-
SOUTHWEST WISCONSIN

CITY           SKY/WX    TMP DP  RH WIND       PRES   REMARKS
LA CROSSE      CLOUDY    68  59  73 S6        29.93R
SPARTA         PTSUNNY   69  59  70 SE5       29.94S
VIROQUA        CLOUDY    65  59  80 SE15      29.95S
BOSCOBEL       NOT AVBL
PRAIRIE DU CHI SUNNY     66  60  80 E5        29.95R
PLATTEVILLE    MOSUNNY   66  62  86 E12       29.97R
$$

WIZ056-057-062-063-064-067-068-311400-
SOUTH CENTRAL WISCONSIN

CITY           SKY/WX    TMP DP  RH WIND       PRES   REMARKS
REEDSBURG      SUNNY     71  57  62 SE7       29.96S
BARABOO/DELLS  SUNNY     71  54  54 SE9       29.97S
LONE ROCK      MOSUNNY   69  60  73 E9        29.96F
MINERAL POINT  SUNNY     68  59  73 SE10G16   29.97S
MADISON        PTSUNNY   70  55  59 SE10      29.98S
MIDDLETON      MOSUNNY   71  55  58 SE12      29.99S
WATERTOWN      SUNNY     69  56  64 SE8       30.00S
MONROE         CLOUDY    66  55  68 E9        29.98F
JANESVILLE     PTSUNNY   72  54  53 E8        29.99F
$$

WIZ051-052-058>065-066-070>072-311400-
SOUTHEAST WISCONSIN

CITY           SKY/WX    TMP DP  RH WIND       PRES   REMARKS
MILWAUKEE      MOSUNNY   70  55  59 NE9       30.03S
WAUKESHA       SUNNY     66  55  68 E7        30.03S
MILWAUKEE/TIMM SUNNY     66  52  59 NE8       30.05R
RACINE         MOSUNNY   70  53  54 E8        30.04F
BURLINGTON     SUNNY     69  53  56 E9        30.02S
KENOSHA        SUNNY     69  55  60 E9        30.03R
FOND DU LAC    CLOUDY    65  59  81 E6        30.02F
SHEBOYGAN      CLOUDY    54  49  83 NE17      30.05S
WEST BEND      MOSUNNY   64  55  72 NE10      30.04R
JUNEAU         SUNNY     68  59  73 E7        30.01F
$$

LSZ147-162-311400-
LAKE SUPERIOR

STATION/POSITION TIME  TEMP    WIND        PRES    WAVE
                       AIR SEA DIR/SP/G            HT/PER
                 (UTC) (F)     (DEG/KT/KT) (MB)    (FT/S)
W MID LAKE BUOY  1250   42 38   80/ 19/ 21 1018.4F   3/ 5
DEVILS ISLAND    1200   43      70/ 25/ 28 1017.4F
SAXON HARBOR     1200   55      50/  8/  9 1014.9F
$$

LMZ867-665-643>646-311400-
LAKE MICHIGAN

STATION/POSITION TIME  TEMP    WIND        PRES    WAVE
                       AIR SEA DIR/SP/G            HT/PER
                 (UTC) (F)     (DEG/KT/KT) (MB)    (FT/S)
CHAMBERS ISLAND  1200   53      10/ 12/ 14 1019.6R
N MID LAKE BUOY  1250   48 47   60/ 12/ 14 1019.5R   1/ 3
NORTHPORT PIER   1200   51      40/  6/  8 1019.6R
SISTER BAY       1205   52     360/  7/ 11   N/A
ALGOMA LAKESHORE 1202          360/  9/ 11   N/A
KEWAUNEE LAKESHO 1200   51      30/  9/ 13 1018.1R
SHEBOYGAN LAKESH 1300   49     360/ 17/ 18 1018.0S
PORT WASHINGTON  1200   52      30/ 10/ 15 1017.9
S MID LAKE BUOY  1250   58 55   40/ 10/ 12 1017.0R   0
KENOSHA   LAKESH 1300   57      40/  6/  9 1016.6S
$$

TC  - TEMPERATURE IN CELSIUS
VSB - VISIBILITY IN STATUTE MILES
WCI - WIND CHILL INDEX
HX  - HEAT INDEX




USA.gov is the U.S. government's official web portal to all federal, state and local government web resources and services.